Volver al catálogo

DELTA 1 DEB

ActivoSSO
NORAD 7065·DEBRIS·🇺🇸 United States

Lanzado Nov 6, 1973 desde Vandenberg Space Force Base

Loading…

Próximos Pases (próximas 24 horas)

TLE

ActualizadoSource: Space-Track

Época: Sep 12, 2026, 09:25 UTC

1 07065U 73086BH  26255.39281583  .00000268  00000-0  25010-2 0  9997
2 07065 101.8700 224.6493 0044643 280.5530 234.7286 12.34388950374763

Sigue DELTA 1 DEB en tiempo real con AllMySat

Download on the App Store